Stations météo

réclame
Mon MeteoGroup
P11-B, Pays-Bas (6203): Température de l'air & dewpoint: 15.01.2019 17:00:00 - 21.01.2019 17:00:00 (CET)P11-B, Pays-Bas (6203): Vitesse du vent & gusts: 15.01.2019 17:00:00 - 21.01.2019 17:00:00 (CET)P11-B, Pays-Bas (6203): Direction du vent: 15.01.2019 17:00:00 - 21.01.2019 17:00:00 (CET)P11-B, Pays-Bas (6203): reduced air pressure: 15.01.2019 17:00:00 - 21.01.2019 17:00:00 (CET)P11-B, Pays-Bas (6203): visibility: 15.01.2019 17:00:00 - 21.01.2019 17:00:00 (CET)
Date & Time tt [°C] td [°C] ff [km/h] ff [knt] fx [km/h] fx [knt] dd ppp [hPa] vv [km]
21.01.2019 17:00:00 5,5 0,8 21 11 22 12 SW 1019,3 10
21.01.2019 16:00:00 5,5 1,1 13 7 18 10 SW 1019,6 10
21.01.2019 15:00:00 5,3 1,3 15 8 22 12 WSW 1020,6 10
21.01.2019 14:00:00 5,3 1,1 15 8 22 12 - 1021,3 10
21.01.2019 13:00:00 5,5 1,3 15 8 22 12 WSW 1021,9 10
21.01.2019 12:00:00 5,5 2,0 13 7 14 8 - 1022,6 10
21.01.2019 11:00:00 5,6 0,8 8 4 14 8 - 1023,1 10
21.01.2019 10:00:00 5,8 0,7 5 3 11 6 W 1023,2 10
21.01.2019 09:00:00 5,4 0,4 5 3 14 8 - 1023,1 10
21.01.2019 08:00:00 5,1 -0,4 9 5 14 8 - 1023,1 10
21.01.2019 07:00:00 5,2 -0,5 9 5 18 10 - 1023,0 10
21.01.2019 06:00:00 5,1 -1,6 9 5 14 8 - 1022,9 10
21.01.2019 05:00:00 4,8 -2,2 5 3 11 6 - 1022,9 10
21.01.2019 04:00:00 5,2 -2,8 5 3 11 6 - 1023,3 10
21.01.2019 03:00:00 5,2 -3,2 5 3 11 6 NNW 1023,6 10
21.01.2019 02:00:00 4,9 -2,8 11 6 14 8 NNW 1023,6 10
21.01.2019 01:00:00 4,8 -3,3 8 4 14 8 - 1023,4 10
21.01.2019 00:00:00 4,8 -3,5 8 4 11 6 N 1023,3 10
20.01.2019 23:00:00 4,7 -3,5 9 5 14 8 NE 1022,6 10
20.01.2019 22:00:00 4,7 -3,5 13 7 18 10 NE 1022,3 10
20.01.2019 21:00:00 4,6 -3,8 11 6 14 8 NNE 1022,2 10
20.01.2019 20:00:00 4,4 -3,5 9 5 14 8 NNE 1021,8 10
20.01.2019 19:00:00 4,2 -3,8 11 6 18 10 NE 1021,1 10
20.01.2019 18:00:00 4,0 -5,1 13 7 18 10 NE 1020,4 10
20.01.2019 17:00:00 3,8 -6,2 13 7 18 10 ENE 1019,8 10
20.01.2019 16:00:00 3,5 -5,3 13 7 18 10 E 1019,3 10
20.01.2019 15:00:00 3,2 -4,8 16 9 18 10 E 1019,1 10
20.01.2019 14:00:00 3,0 -5,1 16 9 22 12 E 1018,9 10
20.01.2019 13:00:00 2,6 -3,4 21 11 25 14 E 1018,8 10
20.01.2019 12:00:00 2,4 -4,1 22 12 25 14 E 1018,4 10
20.01.2019 11:00:00 2,3 -2,8 26 14 29 16 E 1017,8 10
20.01.2019 10:00:00 2,0 -2,5 26 14 29 16 E 1016,9 10
20.01.2019 09:00:00 1,7 -2,7 22 12 29 16 E 1016,2 10
20.01.2019 08:00:00 2,2 -1,4 21 11 22 12 E 1015,4 10
20.01.2019 07:00:00 2,2 -2,0 16 9 22 12 E 1014,9 10
20.01.2019 06:00:00 2,4 -1,5 16 9 22 12 E 1014,4 10
20.01.2019 05:00:00 2,6 -1,4 16 9 22 12 E 1014,1 10
20.01.2019 04:00:00 2,6 -1,6 18 10 22 12 E 1014,1 10
20.01.2019 03:00:00 2,6 -1,6 21 11 25 14 E 1013,9 10
20.01.2019 02:00:00 2,8 -1,7 22 12 25 14 ESE 1013,6 10
20.01.2019 01:00:00 3,1 -1,3 24 13 29 16 ESE 1013,7 10
20.01.2019 00:00:00 3,0 -2,0 26 14 29 16 ESE 1013,6 10
19.01.2019 23:00:00 3,1 -2,1 29 16 32 18 E 1013,2 10
19.01.2019 22:00:00 3,2 -2,5 28 15 36 19 ESE 1013,0 10
19.01.2019 21:00:00 3,2 -1,9 31 17 36 19 ESE 1012,8 10
19.01.2019 20:00:00 3,2 -2,4 34 18 36 19 ESE 1012,7 10
19.01.2019 19:00:00 3,4 -1,9 31 17 36 19 ESE 1012,5 10
19.01.2019 18:00:00 3,3 -2,6 31 17 32 18 ESE 1012,6 10
19.01.2019 17:00:00 3,5 -2,2 28 15 36 19 ESE 1012,5 10
19.01.2019 16:00:00 3,4 -2,4 31 17 36 19 ESE 1012,4 10
19.01.2019 15:00:00 3,3 -2,0 35 19 36 19 ESE 1012,8 10
19.01.2019 14:00:00 3,3 -1,3 37 20 40 21 SE 1013,2 10
19.01.2019 13:00:00 3,0 -1,4 39 21 43 23 SE 1013,7 10
19.01.2019 12:00:00 2,9 -1,2 39 21 43 23 SE 1014,2 10
19.01.2019 11:00:00 3,4 -0,9 42 23 61 33 SE 1014,3 10
19.01.2019 10:00:00 3,0 -1,1 41 22 43 23 SE 1014,3 10
19.01.2019 09:00:00 3,0 -1,5 42 23 43 23 SSE 1014,3 10
19.01.2019 08:00:00 2,7 -1,9 41 22 43 23 SSE 1014,0 10
19.01.2019 07:00:00 2,8 -1,4 44 24 47 25 SSE 1014,2 10
19.01.2019 06:00:00 2,5 -1,6 46 25 47 25 SSE 1014,5 10
19.01.2019 05:00:00 2,8 -1,1 42 23 43 23 SSE 1014,9 10
19.01.2019 04:00:00 3,1 -1,9 44 24 43 23 SSE 1015,2 10
19.01.2019 03:00:00 3,4 -1,5 46 25 43 23 SSE 1015,5 10
19.01.2019 02:00:00 3,9 -0,6 42 23 43 23 SSE 1015,6 10
19.01.2019 01:00:00 4,0 -1,3 41 22 40 21 SSE 1016,4 10
19.01.2019 00:00:00 4,2 0,0 39 21 40 21 SSE 1016,8 10
18.01.2019 23:00:00 4,3 0,0 39 21 40 21 SSE 1016,8 10
18.01.2019 22:00:00 5,0 -0,1 39 21 40 21 SSE 1017,1 10
18.01.2019 21:00:00 5,2 1,3 39 21 40 21 SSE 1017,1 10
18.01.2019 20:00:00 5,2 2,1 34 18 36 19 SSE 1017,4 10
18.01.2019 19:00:00 5,5 2,4 31 17 36 19 SSE 1017,4 10
18.01.2019 18:00:00 5,6 1,6 31 17 32 18 SSE 1017,5 10
18.01.2019 17:00:00 5,9 0,3 29 16 32 18 SSE 1017,7 10
18.01.2019 16:00:00 5,9 0,2 34 18 36 19 SSE 1017,7 10
18.01.2019 15:00:00 6,1 -1,3 31 17 36 19 SSE 1018,0 10
18.01.2019 14:00:00 6,2 -1,5 29 16 32 18 S 1018,3 10
18.01.2019 13:00:00 6,3 -0,8 26 14 29 16 S 1018,8 10
18.01.2019 12:00:00 6,6 -1,4 8 4 11 6 - 1019,2 10
18.01.2019 11:00:00 6,5 -1,1 9 5 14 8 WSW 1019,3 10
18.01.2019 10:00:00 6,6 -1,3 9 5 14 8 S 1018,9 10
18.01.2019 09:00:00 6,6 -2,0 8 4 18 10 S 1018,5 10
18.01.2019 08:00:00 6,5 -2,1 4 2 7 4 - 1018,2 10
18.01.2019 07:00:00 6,5 -2,5 2 1 4 2 - 1018,1 10
18.01.2019 06:00:00 6,5 -2,7 5 3 11 6 N 1017,7 10
18.01.2019 05:00:00 6,6 -3,3 8 4 14 8 N 1017,6 10
18.01.2019 04:00:00 6,6 -2,5 9 5 22 12 N 1017,2 10
18.01.2019 03:00:00 6,6 -3,0 15 8 25 14 NNW 1017,1 10
18.01.2019 02:00:00 6,7 -4,7 16 9 40 21 - 1016,4 10
18.01.2019 01:00:00 7,0 -3,8 22 12 40 21 NNW 1015,8 10
18.01.2019 00:00:00 7,0 -1,5 29 16 47 25 NNW 1014,8 10
17.01.2019 23:00:00 6,6 -1,5 39 21 43 23 NNW 1014,1 10
17.01.2019 22:00:00 6,1 0,5 35 19 50 27 NW 1013,6 10
17.01.2019 21:00:00 6,3 0,9 39 21 54 29 NW 1012,4 10
17.01.2019 20:00:00 5,4 -0,3 46 25 61 33 NW 1010,9 9
17.01.2019 19:00:00 6,3 0,8 44 24 58 31 NW 1009,8 10
17.01.2019 18:00:00 6,1 0,0 48 26 61 33 NNW 1008,7 10
17.01.2019 17:00:00 4,8 -0,1 50 27 72 39 NW 1007,8 10
17.01.2019 16:00:00 5,6 0,1 50 27 79 43 NNW 1006,1 10
17.01.2019 15:00:00 3,8 1,0 52 28 83 45 WNW 1004,1 10
17.01.2019 14:00:00 4,0 1,1 57 31 68 37 W 1004,0 8
17.01.2019 13:00:00 3,9 1,1 48 26 54 29 W 1003,6 10
17.01.2019 12:00:00 5,3 -0,8 46 25 54 29 WNW 1003,4 10
17.01.2019 11:00:00 5,1 0,0 37 20 58 31 WNW 1003,2 10
17.01.2019 10:00:00 4,1 1,5 44 24 58 31 NW 1002,4 10
17.01.2019 09:00:00 4,7 2,0 35 19 47 25 NW 1001,2 10
17.01.2019 08:00:00 6,0 2,5 37 20 43 23 - 1000,2 10
17.01.2019 07:00:00 6,0 2,3 39 21 43 23 W 1000,2 10
17.01.2019 06:00:00 6,2 3,1 35 19 47 25 - 1000,0 10
17.01.2019 05:00:00 6,8 2,9 39 21 43 23 - 1000,0 10
17.01.2019 04:00:00 7,0 3,3 42 23 47 25 W 1000,3 10
17.01.2019 03:00:00 6,9 2,6 48 26 50 27 WSW 1000,4 10
17.01.2019 02:00:00 7,0 3,3 44 24 47 25 WSW 1000,6 10
17.01.2019 01:00:00 7,0 3,0 46 25 47 25 WSW 1000,4 10
17.01.2019 00:00:00 6,8 3,2 50 27 50 27 WSW 1000,5 10
16.01.2019 23:00:00 6,7 3,2 35 19 40 21 W 1000,4 10
16.01.2019 22:00:00 6,9 1,8 21 11 36 19 WNW 1000,1 10
16.01.2019 21:00:00 6,1 3,6 31 17 40 21 WNW 1000,5 6
16.01.2019 20:00:00 6,1 4,9 61 33 76 41 SSW 999,6 4,4
16.01.2019 19:00:00 7,6 6,4 58 31 72 39 SSW 998,0 9
16.01.2019 18:00:00 7,4 6,6 65 35 68 37 SSW 999,2 6
16.01.2019 17:00:00 7,5 6,5 67 36 68 37 SSW 1000,1 5
16.01.2019 16:00:00 7,8 6,0 63 34 65 35 SSW 1000,6 7
16.01.2019 15:00:00 7,7 5,9 67 36 68 37 SSW 1001,1 7
16.01.2019 14:00:00 7,8 6,2 61 33 65 35 SSW 1002,2 6
16.01.2019 13:00:00 7,8 6,5 59 32 61 33 SSW 1003,3 6
16.01.2019 12:00:00 8,6 6,5 63 34 65 35 SSW 1004,5 10
16.01.2019 11:00:00 8,5 6,4 59 32 61 33 SSW 1005,1 10
16.01.2019 10:00:00 8,4 6,4 59 32 65 35 SSW 1006,2 10
16.01.2019 09:00:00 8,6 6,5 59 32 61 33 SW 1006,5 10
16.01.2019 08:00:00 8,7 6,9 55 30 58 31 SW 1006,8 10
16.01.2019 07:00:00 8,8 7,1 52 28 54 29 SSW 1007,5 10
16.01.2019 06:00:00 8,9 6,5 50 27 58 31 SW 1008,2 10
16.01.2019 05:00:00 8,8 6,5 54 29 54 29 SW 1008,6 10
16.01.2019 04:00:00 8,8 5,6 48 26 54 29 SW 1010,0 10
16.01.2019 03:00:00 9,0 5,4 52 28 54 29 SW 1010,6 10
16.01.2019 02:00:00 9,1 5,7 54 29 54 29 SW 1011,0 10
16.01.2019 01:00:00 9,0 5,9 52 28 54 29 SW 1011,6 10
16.01.2019 00:00:00 9,1 6,1 55 30 58 31 SW 1012,0 9
15.01.2019 23:00:00 9,0 6,4 54 29 54 29 SW 1012,6 10
15.01.2019 22:00:00 8,9 6,4 48 26 47 25 WSW 1013,3 9
15.01.2019 21:00:00 8,8 6,1 44 24 47 25 WSW 1013,8 5
15.01.2019 20:00:00 8,7 6,3 42 23 47 25 WSW 1014,1 7
15.01.2019 19:00:00 8,5 6,2 46 25 50 27 WSW 1014,4 10
15.01.2019 18:00:00 8,5 6,1 50 27 54 29 WSW 1014,7 10
15.01.2019 17:00:00 8,4 5,6 48 26 47 25 WSW 1014,9 10

tt = Température de l'air
td = dewpoint
ff = Vitesse du vent
fx = gusts
dd = Direction du vent
ppp = reduced air pressure
vv = visibility

stations d'obs. à proximité